Flag for U.S.A. Weather past 2 weeks in Sterling Heights, Michigan, U.S.A.

Now
56 °F

Passing clouds.


Feels Like: 54 °F
Forecast: 54 / 72 °F
Wind: 7 mph from Northwest

Location: Selfridge Air National Guard Base

Current Time: Jul 29, 2014 at 1:52:56 AM

Latest Report: Jul 29, 2014 at 12:58 AM


Visibility: 10 mi

Pressure: 29.98 "Hg

Humidity: 71%

Dew point: 47 °F

Location of Sterling HeightsLocation

Historic Weather in Sterling Heights — Graph

°F

Sterling Heights temperature yesterday

Maximum temperature yesterday: 65 °F (at 3:55 PM)
Minimum temperature yesterday: 56 °F (at 9:55 PM)
Average temperature yesterday: 62 °F

Past Weeks' High & Low Weather Summary

 TemperatureHumidityPressure
High87 °F (Jul 22, 7:55 PM)100% (Jul 15, 3:58 AM)30.25 "Hg (Jul 15, 3:58 AM)
Low52 °F (Jul 18, 6:58 AM)38% (Jul 14, 2:55 PM)29.58 "Hg (Jul 27, 5:03 PM)
Average67 °F73%29.98 "Hg
* Reported Jul 13 11:58 PM — Jul 28 11:58 PM, Sterling Heights, Weather by CustomWeather, © 2014

Note: Actual official high and low records may vary slightly from our data, if they occured in-between our weather recording intervals... More about our weather records

Advertising

Sterling Heights weather history for previous 24 hours

 ConditionsComfort  
Time TempWeatherWind HumidityBarometerVisibility
11:58 PM
Jul 28
58 °FOvercast.7 mph68%29.99 "Hg10 mi
10:55 PM58 °FPassing clouds.8 mph66%30.01 "Hg12 mi
9:55 PM56 °FScattered clouds.6 mph69%30.01 "Hg12 mi
8:55 PM58 °FScattered clouds.8 mph66%29.99 "Hg12 mi
7:55 PM60 °FPassing clouds.13 mph63%29.98 "Hg12 mi
6:55 PM63 °FScattered clouds.13 mph63%29.97 "Hg10 mi
5:55 PM63 °FBroken clouds.15 mph64%29.97 "Hg10 mi
4:55 PM62 °FScattered showers. More clouds than sun.17 mph68%29.96 "Hg10 mi
3:55 PM65 °FBroken clouds.12 mph61%29.94 "Hg10 mi
2:55 PM65 °FCloudy.13 mph64%29.94 "Hg10 mi
1:55 PM65 °FCloudy.15 mph65%29.93 "HgN/A
12:55 PM65 °FMostly cloudy.16 mph66%29.93 "Hg10 mi
11:55 AM63 °FOvercast.18 mph72%29.91 "Hg10 mi
10:58 AM63 °FOvercast.17 mph74%29.88 "Hg10 mi
9:58 AM63 °FOvercast.18 mph76%29.86 "Hg10 mi
8:58 AM62 °FMostly cloudy.15 mph82%29.83 "Hg10 mi
7:58 AM62 °FMostly cloudy.17 mph83%29.80 "Hg10 mi
6:58 AM63 °FMostly cloudy.16 mph83%29.77 "Hg10 mi
6:03 AM63 °FPartly cloudy.18 mph83%29.74 "Hg10 mi
5:58 AM62 °FMostly cloudy.17 mph85%29.74 "Hg10 mi
4:58 AM63 °FPassing clouds.16 mph94%29.70 "Hg10 mi
3:58 AM63 °FOvercast.8 mph94%29.67 "Hg10 mi
2:58 AM63 °FLight rain. Overcast.8 mph94%29.67 "Hg10 mi
2:03 AM63 °FLight rain. Mostly cloudy.8 mph94%29.67 "Hg9 mi
1:58 AM63 °FLight rain. Mostly cloudy.9 mph95%29.68 "Hg10 mi
1:02 AM63 °FOvercast.7 mph94%29.69 "Hg10 mi
Weather by CustomWeather, © 2014

See weather overviewHow to use our weather pages